SCP
0 0 0 0 0 0 0 0 0 0 0 0 1 1 2 2 3 4 4 4 4 4 4 4 5 6 7 7 6 6 6 5 4 4 3 4 6 8 8 5 4 3 2 1
0 0 0 0 0 0 0 0 0 0 0 1 2 2 2 2 3 4 4 4 5 5 5 5 5 6 7 8 7 7 6 6 5 5 4 4 5 6 6 5 3 3 2 2
0 0 0 0 0 0 0 0 0 0 0 1 2 3 2 2 3 3 3 4 5 5 6 7 7 7 8 8 8 8 8 8 7 6 6 5 5 5 5 4 3 3 3 2
0 0 0 0 0 0 0 0 0 0 0 1 2 2 2 3 3 2 3 4 4 5 6 7 7 6 7 7 8 9 11 10 9 8 7 6 5 6 5 5 4 4 3 3
0 0 0 0 0 0 0 0 0 0 0 1 1 2 3 3 3 3 3 4 5 6 7 7 7 6 6 7 8 10 12 12 11 10 8 6 5 6 6 5 4 4 4 3
0 0 0 0 0 0 0 0 0 0 0 0 1 2 3 3 3 3 4 6 7 7 7 7 6 6 6 7 9 10 11 12 11 10 8 6 6 7 7 6 5 4 4 3
0 0 0 0 0 0 0 0 0 1 1 0 1 2 2 3 3 3 5 7 8 7 6 6 6 6 6 8 9 11 12 12 11 10 8 8 9 9 8 6 5 4 3 3
0 0 0 0 0 0 0 0 0 1 0 0 1 2 2 3 3 3 5 7 7 6 5 5 6 7 8 9 11 13 14 13 11 10 9 9 10 9 7 6 4 3 3 3
0 0 0 0 0 0 0 0 0 0 0 0 1 2 3 3 3 2 3 5 6 7 7 8 9 10 11 11 13 15 16 14 12 10 9 8 8 7 6 6 4 3 3 3
0 0 0 0 0 0 0 0 0 0 0 0 1 3 3 3 3 3 3 5 8 10 11 12 13 13 12 12 14 16 16 16 14 11 9 8 6 6 5 5 4 4 3 3
0 0 0 0 0 0 0 0 0 0 0 0 1 3 3 3 4 4 4 8 11 12 11 11 11 10 10 11 13 14 15 16 14 12 10 8 7 6 5 5 5 5 4 4
0 0 0 0 0 0 0 0 0 0 0 0 1 3 4 4 5 6 8 10 11 10 9 7 7 7 8 9 10 11 13 15 14 12 11 10 8 7 6 6 6 5 5 5
0 0 0 0 0 0 0 0 0 0 0 0 1 3 6 6 6 8 10 10 9 8 8 7 7 8 8 9 9 11 13 15 15 13 11 10 9 8 7 7 6 6 6 6
0 0 0 0 0 0 0 0 0 0 0 0 1 4 7 8 8 9 9 8 7 7 7 8 9 9 9 10 11 12 13 15 15 12 9 8 8 8 8 7 7 6 6 7
0 0 0 0 0 0 0 0 0 0 0 0 1 4 7 9 9 8 6 6 6 6 7 9 9 10 11 12 13 14 13 13 12 10 9 8 8 9 8 8 8 8 8 8
0 0 0 0 0 0 0 0 0 0 0 1 2 5 7 7 7 5 4 5 5 6 7 8 8 9 11 13 13 13 12 11 10 10 10 10 11 10 9 8 8 9 9 9
0 0 0 0 0 0 0 0 0 0 1 2 3 5 6 6 6 5 4 4 5 6 6 5 6 8 10 11 11 11 10 9 10 11 11 12 13 13 12 10 9 9 9 10
0 0 0 0 0 1 1 1 1 1 2 3 5 5 5 5 5 6 4 4 5 6 6 6 6 7 9 9 8 9 9 9 10 11 12 13 14 14 13 11 10 10 10 10
0 0 0 0 0 1 2 3 3 2 3 4 4 4 4 3 4 5 5 5 5 6 7 8 8 8 8 8 8 9 9 8 9 11 12 14 14 15 14 13 13 13 13 12
0 0 0 0 0 1 2 3 3 3 3 3 3 3 3 3 3 4 4 5 5 5 7 8 9 9 10 10 10 11 11 10 9 10 12 14 15 15 15 16 17 17 16 14
1 1 1 1 1 1 1 2 3 3 4 4 4 4 4 4 4 4 4 4 4 4 6 8 9 11 12 13 13 12 12 11 11 11 12 14 16 16 16 17 19 19 16 15
2 2 1 1 1 1 1 2 3 3 4 5 5 5 4 4 4 4 5 5 5 5 6 7 8 10 13 14 13 11 10 10 11 12 12 12 15 16 16 17 18 18 16 15
2 2 2 2 1 1 2 2 3 4 4 5 5 4 4 3 4 5 5 6 6 5 5 5 7 10 13 13 11 9 8 8 9 9 9 10 12 13 13 14 15 15 15 15
2 2 2 2 2 2 2 2 3 4 5 5 5 4 3 3 3 5 7 8 7 5 4 5 7 10 11 10 9 9 9 8 8 7 7 8 9 10 10 10 11 12 12 12
2 2 3 3 3 3 3 3 4 4 4 4 4 4 4 3 4 7 10 10 8 6 5 6 7 8 8 8 8 9 9 8 8 7 8 8 8 8 8 7 8 8 8 8
2 2 3 4 4 4 4 5 5 5 4 3 3 4 5 4 4 7 11 11 9 7 7 7 7 7 7 7 8 9 8 8 7 7 8 8 8 8 7 7 7 6 5 5
Wind_Speed
12 12 10 9 8 9 9 7 4 3 4 6 4 5 8 8 7 8 8 9 9 9 10 10 9 10 10 8 7 6 5 4 3 3 3 2 2 2 2 2 3 3 2 2
12 14 12 11 10 10 11 8 6 5 4 5 4 4 5 7 7 7 8 9 10 10 10 11 11 10 10 9 8 7 5 5 5 3 2 2 2 2 2 2 3 2 2 2
15 11 9 10 11 10 10 8 7 9 6 6 5 4 4 6 6 6 7 6 8 9 9 10 10 10 10 9 9 7 6 6 5 4 3 2 2 1 2 2 2 2 2 2
14 13 10 11 12 10 10 7 9 10 8 6 7 4 4 5 6 6 6 7 7 7 8 9 10 10 9 10 9 8 7 6 5 4 3 3 3 2 2 2 2 2 2 2
14 13 12 13 11 10 9 8 9 11 10 8 7 6 4 5 7 7 6 7 6 7 7 7 9 10 9 9 9 9 7 7 6 5 4 3 2 2 2 3 3 3 3 2
16 13 12 12 10 10 9 8 10 11 8 8 9 8 4 5 5 7 8 8 8 9 8 7 7 7 7 8 9 9 8 7 7 6 5 4 3 3 3 3 3 3 3 2
16 16 13 11 11 10 10 7 6 7 7 8 8 7 4 4 4 5 6 8 8 9 9 8 8 8 7 8 9 10 10 8 7 6 5 4 4 4 4 4 3 2 2 2
13 13 13 12 11 10 10 11 9 9 8 6 5 4 2 2 3 4 6 7 5 6 7 8 8 8 8 7 8 10 10 8 8 7 5 4 4 3 3 2 2 2 1 2
10 11 10 11 10 12 11 11 11 10 11 7 4 4 5 4 4 5 6 7 5 3 5 6 7 8 8 7 8 10 10 8 7 7 6 5 4 2 2 3 2 1 1 2
12 12 10 8 9 13 13 11 8 8 7 9 7 7 4 4 4 4 5 5 5 5 5 5 6 6 6 7 8 9 10 8 7 7 6 5 4 3 2 2 2 2 1 1
14 13 12 9 10 11 11 12 10 8 8 8 7 3 3 6 5 5 5 5 5 5 5 5 5 5 6 6 7 8 9 8 7 6 5 5 5 4 3 3 3 2 2 2
10 11 11 12 11 10 12 12 12 9 8 9 8 2 3 2 3 4 5 5 5 5 5 5 6 5 5 5 5 6 7 8 7 6 5 5 5 4 4 4 3 2 2 2
6 8 10 11 9 9 10 11 11 11 9 8 8 2 3 3 4 5 5 7 6 6 5 5 5 4 4 4 4 5 5 5 6 6 6 5 5 4 4 3 3 3 2 2
6 10 11 11 9 8 10 12 11 11 9 8 8 4 5 4 5 5 6 7 6 5 4 4 5 5 4 4 3 4 4 4 5 4 5 4 4 4 4 3 3 3 3 2
8 11 11 12 15 15 13 11 10 11 10 9 6 3 3 5 6 6 6 6 5 4 5 5 4 4 4 4 3 3 3 3 3 3 3 3 3 3 3 3 3 2 2 3
8 10 12 14 15 14 13 11 10 10 10 8 6 2 4 5 5 5 5 5 4 4 3 3 4 4 3 3 2 3 3 2 3 3 2 2 2 3 3 2 2 2 2 2
8 8 11 12 13 14 13 10 8 9 8 6 4 2 5 4 4 4 3 4 4 3 3 3 3 3 3 3 2 2 2 3 3 3 2 2 2 3 3 3 3 3 3 2
9 8 8 11 12 15 9 6 6 7 5 3 1 3 5 5 5 5 5 4 4 4 4 4 3 2 3 3 2 2 2 2 3 3 2 2 2 2 2 2 3 3 2 2
11 8 9 9 12 12 8 5 6 4 4 3 1 4 5 6 6 7 7 6 5 5 4 3 3 3 3 3 2 2 2 2 2 2 2 2 2 2 3 3 3 2 2 2
11 8 9 10 12 11 5 6 5 4 3 2 2 2 3 2 2 4 6 6 6 5 5 4 4 4 4 3 2 1 2 2 1 1 2 2 2 3 3 3 2 2 2 2
10 10 12 12 12 6 4 7 6 5 2 5 4 5 5 5 5 5 6 6 5 5 5 4 4 4 4 4 3 2 2 1 0 1 1 2 2 2 2 2 1 2 2 2
8 8 8 8 10 5 7 5 4 5 6 7 6 7 7 7 6 5 5 5 4 4 4 4 3 4 4 3 3 2 2 1 1 1 0 1 1 2 2 2 2 2 2 3
6 4 3 2 2 2 5 5 4 4 5 6 5 5 6 5 5 5 5 4 3 3 3 3 3 3 3 3 2 2 2 2 1 0 0 1 1 1 2 2 2 2 2 2
4 5 4 2 0 1 2 3 4 5 5 5 5 4 4 4 3 4 3 3 2 2 2 2 3 3 3 3 2 2 2 1 0 1 1 2 2 2 1 1 2 2 2 2
7 6 4 3 3 3 2 4 4 4 4 4 4 4 3 3 2 2 2 2 1 1 2 2 2 2 2 2 2 2 2 2 1 1 1 2 2 1 1 1 1 2 2 2
6 6 5 3 3 3 3 4 5 4 4 4 3 3 3 3 1 0 1 1 1 2 2 1 1 1 1 2 2 2 2 1 1 1 2 2 2 1 1 1 1 1 1 2
Wind_Direction
240 241 247 249 248 263 273 279 271 233 244 243 204 175 168 176 171 164 165 177 179 173 162 157 159 155 151 147 148 154 155 150 151 158 170 176 159 141 126 122 117 115 97 82
242 243 247 250 252 259 264 264 276 265 252 259 213 191 180 165 179 180 176 179 177 173 162 160 166 164 159 155 155 158 163 159 166 165 167 162 150 149 136 119 117 130 116 87
239 247 245 256 257 259 267 263 273 277 271 261 250 214 190 177 174 174 171 177 171 176 171 169 168 169 167 163 165 169 169 165 172 167 164 159 138 142 127 129 129 127 123 115
247 249 246 251 255 254 266 267 270 271 270 268 255 250 197 189 179 181 177 173 171 167 170 175 171 173 175 169 168 164 163 163 169 169 171 172 157 159 147 134 128 138 131 120
248 248 245 250 256 260 268 276 277 278 273 271 279 270 230 202 194 171 184 175 161 162 169 177 174 172 176 170 165 163 160 163 167 173 166 170 160 157 143 141 144 151 140 123
258 256 252 257 256 258 265 276 281 276 271 259 253 259 244 222 208 174 180 162 157 156 165 173 170 162 170 166 161 159 157 163 165 170 169 171 168 165 152 152 160 170 152 139
250 250 245 250 251 248 252 255 262 260 252 252 254 252 234 210 210 175 153 151 165 165 171 173 164 160 160 161 164 159 157 162 165 170 173 172 170 173 167 171 171 175 159 148
240 243 237 238 246 255 251 247 246 262 268 269 280 276 258 225 172 133 132 131 144 176 167 165 167 161 158 165 163 153 153 161 167 172 172 170 174 188 172 169 164 156 150 143
251 250 238 234 239 252 253 255 265 273 279 281 263 247 225 212 159 141 121 118 138 177 159 154 156 155 155 162 158 154 151 158 165 167 163 162 171 177 164 153 155 149 151 156
258 268 256 237 237 240 249 262 265 265 271 274 251 235 214 193 186 145 129 139 151 150 140 142 143 143 148 164 155 151 150 158 163 162 171 165 169 167 164 147 152 156 161 142
255 263 262 241 230 242 246 252 260 269 271 274 275 254 175 166 174 162 152 149 133 131 124 128 130 133 147 144 144 153 152 158 162 166 165 163 169 172 173 165 168 166 172 167
256 261 263 258 241 239 246 245 253 255 258 263 268 237 77 63 115 128 124 119 102 94 108 114 120 129 133 136 140 144 155 163 163 161 164 170 167 172 181 171 171 169 179 192
295 266 260 257 240 223 239 249 259 268 263 262 268 212 134 140 116 106 114 103 95 81 88 99 106 110 115 118 127 136 147 149 153 160 168 173 176 177 178 173 178 179 182 193
285 267 263 260 269 249 237 247 252 260 264 263 259 212 172 158 122 119 109 102 101 96 89 88 88 84 85 96 98 113 129 136 146 151 162 169 174 170 177 179 176 182 181 178
259 264 267 264 266 262 247 243 246 251 261 265 269 235 175 141 126 127 123 116 109 94 80 76 77 81 84 91 101 108 122 125 133 140 152 162 165 166 172 174 174 179 192 192
258 271 277 274 271 273 270 257 247 246 255 256 262 265 114 124 119 132 134 132 124 107 88 69 71 79 81 80 92 106 116 117 125 141 150 141 159 166 167 175 172 178 191 205
276 276 276 274 276 272 266 271 278 278 266 273 265 155 121 108 116 125 118 113 106 98 85 71 63 74 88 91 106 121 124 126 131 143 147 152 172 185 184 192 185 193 198 201
253 267 272 271 270 261 262 266 266 274 287 282 279 118 122 117 107 92 85 89 84 75 72 58 44 64 96 104 96 108 118 128 146 157 164 167 181 183 183 203 203 203 202 209
254 252 261 266 267 264 265 273 264 262 297 313 8 97 112 121 113 80 65 65 72 68 63 47 29 31 60 74 71 121 150 147 156 168 178 179 188 195 198 209 210 203 205 216
236 238 246 256 263 267 292 323 313 281 248 11 67 102 119 132 145 89 72 66 59 59 59 42 32 41 63 61 64 72 146 147 163 181 193 194 193 205 209 212 202 203 213 225
222 228 239 250 260 270 318 313 296 276 52 43 70 76 69 54 62 81 78 69 61 55 58 53 42 42 58 54 50 51 68 94 157 220 210 206 191 201 207 198 196 204 219 224
250 243 241 253 258 271 352 347 9 46 60 58 57 66 75 78 79 78 80 73 59 51 49 52 50 44 53 54 50 43 35 24 38 49 252 213 200 224 212 193 206 207 214 221
278 298 288 300 312 40 30 46 45 43 58 60 63 68 82 82 81 76 80 72 61 54 44 40 47 49 49 49 46 25 14 20 37 21 314 262 234 235 220 210 218 211 207 225
303 333 316 316 290 52 47 51 54 46 48 51 57 57 72 80 73 80 75 74 63 58 44 41 45 44 35 28 25 10 7 12 14 301 269 247 229 241 213 213 219 215 218 225
312 312 313 300 311 328 36 30 36 42 39 38 47 33 27 56 58 86 88 84 78 71 46 40 48 47 33 25 20 9 20 10 349 301 278 269 250 228 212 229 256 239 219 224
294 297 293 297 339 336 355 22 12 17 17 18 19 11 7 6 358 91 120 106 76 57 54 40 26 8 0 356 360 15 14 358 312 284 283 281 273 232 235 232 252 1 255 196